����������;��������(kVARh)
2019-07-29 00:00;16,6
2019-07-29 00:15;18,45
2019-07-29 00:30;19,4
2019-07-29 00:45;20,3
2019-07-29 01:00;20,5
2019-07-29 01:15;21,8
2019-07-29 01:30;21,2
2019-07-29 01:45;21,05
2019-07-29 02:00;18,25
2019-07-29 02:15;19,7
2019-07-29 02:30;19,55
2019-07-29 02:45;20,05
2019-07-29 03:00;21,7
2019-07-29 03:15;20,1
2019-07-29 03:30;21,6
2019-07-29 03:45;23,25
2019-07-29 04:00;22,95
2019-07-29 04:15;22,8
2019-07-29 04:30;24,55
2019-07-29 04:45;22,9
2019-07-29 05:00;24,2
2019-07-29 05:15;25,05
2019-07-29 05:30;24,45
2019-07-29 05:45;25,15
2019-07-29 06:00;23,45
2019-07-29 06:15;22,15
2019-07-29 06:30;21,7
2019-07-29 06:45;21
2019-07-29 07:00;20,8
2019-07-29 07:15;21,15
2019-07-29 07:30;40,45
2019-07-29 07:45;31,55
2019-07-29 08:00;28,45
2019-07-29 08:15;26,95
2019-07-29 08:30;37,85
2019-07-29 08:45;47,75
2019-07-29 09:00;45,1
2019-07-29 09:15;44,05
2019-07-29 09:30;47,6
2019-07-29 09:45;48,8
2019-07-29 10:00;58
2019-07-29 10:15;58,8
2019-07-29 10:30;56,25
2019-07-29 10:45;59,6
2019-07-29 11:00;63,15
2019-07-29 11:15;59,65
2019-07-29 11:30;56,15
2019-07-29 11:45;63,15
2019-07-29 12:00;62,25
2019-07-29 12:15;64,7
2019-07-29 12:30;65,35
2019-07-29 12:45;64,85
2019-07-29 13:00;66,95
2019-07-29 13:15;69,1
2019-07-29 13:30;69,05
2019-07-29 13:45;67,5
2019-07-29 14:00;58,6
2019-07-29 14:15;65,35
2019-07-29 14:30;59,05
2019-07-29 14:45;73,2
2019-07-29 15:00;69,5
2019-07-29 15:15;56,6
2019-07-29 15:30;57,3
2019-07-29 15:45;56,2
2019-07-29 16:00;47,65
2019-07-29 16:15;54,95
2019-07-29 16:30;38
2019-07-29 16:45;44,5
2019-07-29 17:00;32,5
2019-07-29 17:15;40,3
2019-07-29 17:30;35,8
2019-07-29 17:45;30,5
2019-07-29 18:00;30,3
2019-07-29 18:15;33,35
2019-07-29 18:30;35,55
2019-07-29 18:45;33,65
2019-07-29 19:00;34,15
2019-07-29 19:15;37,1
2019-07-29 19:30;37,9
2019-07-29 19:45;38,3
2019-07-29 20:00;31,95
2019-07-29 20:15;31,15
2019-07-29 20:30;31,5
2019-07-29 20:45;30,35
2019-07-29 21:00;30,15
2019-07-29 21:15;31,5
2019-07-29 21:30;31,55
2019-07-29 21:45;32,05
2019-07-29 22:00;28,65
2019-07-29 22:15;20,65
2019-07-29 22:30;19,9
2019-07-29 22:45;19,65
2019-07-29 23:00;22,85
2019-07-29 23:15;22,5
2019-07-29 23:30;24,05
2019-07-29 23:45;28,2
2019-07-30 00:00;23,25
2019-07-30 00:15;24,65
2019-07-30 00:30;23,9
2019-07-30 00:45;24,25
2019-07-30 01:00;24,9
2019-07-30 01:15;25
2019-07-30 01:30;23,4
2019-07-30 01:45;19,2
2019-07-30 02:00;19,95
2019-07-30 02:15;21
2019-07-30 02:30;21,5
2019-07-30 02:45;22,95
2019-07-30 03:00;22,1
2019-07-30 03:15;22,1
2019-07-30 03:30;23,8
2019-07-30 03:45;23,6
2019-07-30 04:00;23,6
2019-07-30 04:15;25,1
2019-07-30 04:30;25,3
2019-07-30 04:45;25,55
2019-07-30 05:00;24,5
2019-07-30 05:15;23,8
2019-07-30 05:30;24,95
2019-07-30 05:45;24,6
2019-07-30 06:00;23,5
2019-07-30 06:15;23,55
2019-07-30 06:30;23,55
2019-07-30 06:45;22,05
2019-07-30 07:00;22,25
2019-07-30 07:15;21,2
2019-07-30 07:30;37,2
2019-07-30 07:45;31,8
2019-07-30 08:00;28,8
2019-07-30 08:15;31,3
2019-07-30 08:30;34,3
2019-07-30 08:45;40,5
2019-07-30 09:00;38,15
2019-07-30 09:15;34,35
2019-07-30 09:30;49,35
2019-07-30 09:45;49,7
2019-07-30 10:00;51,9
2019-07-30 10:15;50,85
2019-07-30 10:30;50,9
2019-07-30 10:45;65,8
2019-07-30 11:00;66,7
2019-07-30 11:15;61,6
2019-07-30 11:30;62,6
2019-07-30 11:45;51,45
2019-07-30 12:00;71,85
2019-07-30 12:15;69,9
2019-07-30 12:30;68,45
2019-07-30 12:45;67,85
2019-07-30 13:00;63,75
2019-07-30 13:15;68,75
2019-07-30 13:30;60,1
2019-07-30 13:45;65,55
2019-07-30 14:00;62,65
2019-07-30 14:15;59,5
2019-07-30 14:30;63,15
2019-07-30 14:45;55,3
2019-07-30 15:00;63,5
2019-07-30 15:15;50,5
2019-07-30 15:30;66,95
2019-07-30 15:45;63,1
2019-07-30 16:00;40
2019-07-30 16:15;41,25
2019-07-30 16:30;36,45
2019-07-30 16:45;42,35
2019-07-30 17:00;35,1
2019-07-30 17:15;36,3
2019-07-30 17:30;25,15
2019-07-30 17:45;22,1
2019-07-30 18:00;20
2019-07-30 18:15;26,4
2019-07-30 18:30;26,2
2019-07-30 18:45;25
2019-07-30 19:00;26,1
2019-07-30 19:15;26,4
2019-07-30 19:30;27
2019-07-30 19:45;28,4
2019-07-30 20:00;27,4
2019-07-30 20:15;28,8
2019-07-30 20:30;27,85
2019-07-30 20:45;27
2019-07-30 21:00;27,15
2019-07-30 21:15;27,9
2019-07-30 21:30;29,15
2019-07-30 21:45;29,7
2019-07-30 22:00;27,15
2019-07-30 22:15;27,9
2019-07-30 22:30;29,05
2019-07-30 22:45;30,75
2019-07-30 23:00;23,7
2019-07-30 23:15;21,1
2019-07-30 23:30;21,65
2019-07-30 23:45;22,45
2019-07-31 00:00;18,7
2019-07-31 00:15;21,85
2019-07-31 00:30;23,55
2019-07-31 00:45;23,35
2019-07-31 01:00;24,8
2019-07-31 01:15;25,6
2019-07-31 01:30;25,45
2019-07-31 01:45;27,5
2019-07-31 02:00;28,6
2019-07-31 02:15;27,65
2019-07-31 02:30;28,15
2019-07-31 02:45;30,05
2019-07-31 03:00;29,75
2019-07-31 03:15;31,2
2019-07-31 03:30;26,85
2019-07-31 03:45;26,7
2019-07-31 04:00;27,45
2019-07-31 04:15;25,65
2019-07-31 04:30;25,5
2019-07-31 04:45;25,65
2019-07-31 05:00;24,8
2019-07-31 05:15;25,75
2019-07-31 05:30;25,95
2019-07-31 05:45;25,6
2019-07-31 06:00;23,9
2019-07-31 06:15;23,25
2019-07-31 06:30;22,5
2019-07-31 06:45;22,65
2019-07-31 07:00;23,85
2019-07-31 07:15;22,5
2019-07-31 07:30;37,35
2019-07-31 07:45;37,8
2019-07-31 08:00;23,7
2019-07-31 08:15;29,95
2019-07-31 08:30;36,25
2019-07-31 08:45;41,2
2019-07-31 09:00;41,8
2019-07-31 09:15;37,1
2019-07-31 09:30;40,25
2019-07-31 09:45;43,4
2019-07-31 10:00;49,9
2019-07-31 10:15;53,65
2019-07-31 10:30;59,1
2019-07-31 10:45;59,2
2019-07-31 11:00;56,4
2019-07-31 11:15;61,1
2019-07-31 11:30;60,7
2019-07-31 11:45;65,5
2019-07-31 12:00;68
2019-07-31 12:15;69
2019-07-31 12:30;58,15
2019-07-31 12:45;59,05
2019-07-31 13:00;61,2
2019-07-31 13:15;61,45
2019-07-31 13:30;57,15
2019-07-31 13:45;61,8
2019-07-31 14:00;64,95
2019-07-31 14:15;60,85
2019-07-31 14:30;57,35
2019-07-31 14:45;58,15
2019-07-31 15:00;55,3
2019-07-31 15:15;52,7
2019-07-31 15:30;54,25
2019-07-31 15:45;50,1
2019-07-31 16:00;48,05
2019-07-31 16:15;43,65
2019-07-31 16:30;42,95
2019-07-31 16:45;40,6
2019-07-31 17:00;37,25
2019-07-31 17:15;36,9
2019-07-31 17:30;36,8
2019-07-31 17:45;31,05
2019-07-31 18:00;29,8
2019-07-31 18:15;29,7
2019-07-31 18:30;29,3
2019-07-31 18:45;26,9
2019-07-31 19:00;32,75
2019-07-31 19:15;34,2
2019-07-31 19:30;34,45
2019-07-31 19:45;37,1
2019-07-31 20:00;25,85
2019-07-31 20:15;26,85
2019-07-31 20:30;25,45
2019-07-31 20:45;25,9
2019-07-31 21:00;23,55
2019-07-31 21:15;25,4
2019-07-31 21:30;25,75
2019-07-31 21:45;25,25
2019-07-31 22:00;22,4
2019-07-31 22:15;19
2019-07-31 22:30;18,7
2019-07-31 22:45;19,05
2019-07-31 23:00;20,15
2019-07-31 23:15;18,15
2019-07-31 23:30;20,15
2019-07-31 23:45;22,8
2019-08-01 00:00;18,35
2019-08-01 00:15;19,7
2019-08-01 00:30;20,4
2019-08-01 00:45;18,35
2019-08-01 01:00;18,75
2019-08-01 01:15;20,75
2019-08-01 01:30;20,35
2019-08-01 01:45;21,9
2019-08-01 02:00;22,95
2019-08-01 02:15;18,1
2019-08-01 02:30;17,3
2019-08-01 02:45;19,2
2019-08-01 03:00;18,6
2019-08-01 03:15;19,75
2019-08-01 03:30;21,05
2019-08-01 03:45;22,1
2019-08-01 04:00;21,8
2019-08-01 04:15;21,4
2019-08-01 04:30;22,5
2019-08-01 04:45;20,85
2019-08-01 05:00;21,05
2019-08-01 05:15;21,6
2019-08-01 05:30;20,7
2019-08-01 05:45;20,7
2019-08-01 06:00;20,8
2019-08-01 06:15;19,7
2019-08-01 06:30;19,95
2019-08-01 06:45;21,1
2019-08-01 07:00;20,45
2019-08-01 07:15;20,8
2019-08-01 07:30;43,9
2019-08-01 07:45;48,5
2019-08-01 08:00;43,15
2019-08-01 08:15;37,65
2019-08-01 08:30;46,1
2019-08-01 08:45;38,65
2019-08-01 09:00;45,55
2019-08-01 09:15;45,45
2019-08-01 09:30;44,25
2019-08-01 09:45;47,6
2019-08-01 10:00;48,15
2019-08-01 10:15;52,95
2019-08-01 10:30;53,65
2019-08-01 10:45;58,1
2019-08-01 11:00;60,9
2019-08-01 11:15;55,9
2019-08-01 11:30;63,15
2019-08-01 11:45;59,15
2019-08-01 12:00;61,1
2019-08-01 12:15;61,85
2019-08-01 12:30;56,35
2019-08-01 12:45;63,4
2019-08-01 13:00;59
2019-08-01 13:15;60,45
2019-08-01 13:30;61,25
2019-08-01 13:45;54,8
2019-08-01 14:00;63,05
2019-08-01 14:15;58,4
2019-08-01 14:30;60,35
2019-08-01 14:45;60
2019-08-01 15:00;57,05
2019-08-01 15:15;56,8
2019-08-01 15:30;49,7
2019-08-01 15:45;50,7
2019-08-01 16:00;45,75
2019-08-01 16:15;46,7
2019-08-01 16:30;39,9
2019-08-01 16:45;40,7
2019-08-01 17:00;43,8
2019-08-01 17:15;32,9
2019-08-01 17:30;34,05
2019-08-01 17:45;35,35
2019-08-01 18:00;34,8
2019-08-01 18:15;32,2
2019-08-01 18:30;33,65
2019-08-01 18:45;32,9
2019-08-01 19:00;33,3
2019-08-01 19:15;33,1
2019-08-01 19:30;33,5
2019-08-01 19:45;33,4
2019-08-01 20:00;31,95
2019-08-01 20:15;34,35
2019-08-01 20:30;22,45
2019-08-01 20:45;22,3
2019-08-01 21:00;21,6
2019-08-01 21:15;22,05
2019-08-01 21:30;23,35
2019-08-01 21:45;24,95
2019-08-01 22:00;23,1
2019-08-01 22:15;24,6
2019-08-01 22:30;23,85
2019-08-01 22:45;23,75
2019-08-01 23:00;27,2
2019-08-01 23:15;24,8
2019-08-01 23:30;23,15
2019-08-01 23:45;24,8
2019-08-02 00:00;21,5
2019-08-02 00:15;22,95
2019-08-02 00:30;22,95
2019-08-02 00:45;23,95
2019-08-02 01:00;24,75
2019-08-02 01:15;27,65
2019-08-02 01:30;27,7
2019-08-02 01:45;26,4
2019-08-02 02:00;23,45
2019-08-02 02:15;25,4
2019-08-02 02:30;26,4
2019-08-02 02:45;25,95
2019-08-02 03:00;28,7
2019-08-02 03:15;26,95
2019-08-02 03:30;28,85
2019-08-02 03:45;30
2019-08-02 04:00;30,4
2019-08-02 04:15;29
2019-08-02 04:30;27,35
2019-08-02 04:45;27,75
2019-08-02 05:00;28,1
2019-08-02 05:15;28,2
2019-08-02 05:30;29,1
2019-08-02 05:45;29,5
2019-08-02 06:00;27,85
2019-08-02 06:15;27,7
2019-08-02 06:30;25,65
2019-08-02 06:45;19,8
2019-08-02 07:00;20,65
2019-08-02 07:15;25,1
2019-08-02 07:30;46,7
2019-08-02 07:45;43,45
2019-08-02 08:00;31,4
2019-08-02 08:15;32,2
2019-08-02 08:30;33,65
2019-08-02 08:45;40,8
2019-08-02 09:00;42,45
2019-08-02 09:15;53,55
2019-08-02 09:30;53,95
2019-08-02 09:45;54,9
2019-08-02 10:00;52,6
2019-08-02 10:15;52,2
2019-08-02 10:30;51,7
2019-08-02 10:45;54,85
2019-08-02 11:00;57,95
2019-08-02 11:15;59,1
2019-08-02 11:30;65,4
2019-08-02 11:45;61,9
2019-08-02 12:00;65,1
2019-08-02 12:15;55,25
2019-08-02 12:30;68,8
2019-08-02 12:45;62,75
2019-08-02 13:00;62,7
2019-08-02 13:15;56,6
2019-08-02 13:30;62,9
2019-08-02 13:45;52,35
2019-08-02 14:00;58,45
2019-08-02 14:15;59
2019-08-02 14:30;55,8
2019-08-02 14:45;58,25
2019-08-02 15:00;52,65
2019-08-02 15:15;55,8
2019-08-02 15:30;48,55
2019-08-02 15:45;50,75
2019-08-02 16:00;47,25
2019-08-02 16:15;39,7
2019-08-02 16:30;37,6
2019-08-02 16:45;36,15
2019-08-02 17:00;39,55
2019-08-02 17:15;33,25
2019-08-02 17:30;32,05
2019-08-02 17:45;31,65
2019-08-02 18:00;29,8
2019-08-02 18:15;29,15
2019-08-02 18:30;28,8
2019-08-02 18:45;26,9
2019-08-02 19:00;28,35
2019-08-02 19:15;27,5
2019-08-02 19:30;28
2019-08-02 19:45;29,15
2019-08-02 20:00;28,35
2019-08-02 20:15;29,7
2019-08-02 20:30;31,1
2019-08-02 20:45;28,4
2019-08-02 21:00;27,95
2019-08-02 21:15;30,5
2019-08-02 21:30;31,35
2019-08-02 21:45;34,7
2019-08-02 22:00;28,3
2019-08-02 22:15;28,7
2019-08-02 22:30;30,6
2019-08-02 22:45;31
2019-08-02 23:00;33,6
2019-08-02 23:15;34,4
2019-08-02 23:30;36,15
2019-08-02 23:45;34,05
2019-08-03 00:00;29,25
2019-08-03 00:15;27,1
2019-08-03 00:30;17,55
2019-08-03 00:45;23,3
2019-08-03 01:00;18,5
2019-08-03 01:15;18
2019-08-03 01:30;19,55
2019-08-03 01:45;20,8
2019-08-03 02:00;16,2
2019-08-03 02:15;17,65
2019-08-03 02:30;18,7
2019-08-03 02:45;18,7
2019-08-03 03:00;17,25
2019-08-03 03:15;20,15
2019-08-03 03:30;21,2
2019-08-03 03:45;21,9
2019-08-03 04:00;23,05
2019-08-03 04:15;21,9
2019-08-03 04:30;23
2019-08-03 04:45;23,9
2019-08-03 05:00;23,1
2019-08-03 05:15;23,95
2019-08-03 05:30;24,4
2019-08-03 05:45;23,95
2019-08-03 06:00;25,05
2019-08-03 06:15;23,8
2019-08-03 06:30;24,3
2019-08-03 06:45;24,25
2019-08-03 07:00;23,8
2019-08-03 07:15;20,5
2019-08-03 07:30;19,1
2019-08-03 07:45;17,85
2019-08-03 08:00;16,1
2019-08-03 08:15;13,7
2019-08-03 08:30;13,6
2019-08-03 08:45;11,6
2019-08-03 09:00;11,65
2019-08-03 09:15;15,55
2019-08-03 09:30;15,05
2019-08-03 09:45;15,45
2019-08-03 10:00;16,25
2019-08-03 10:15;15,7
2019-08-03 10:30;19,15
2019-08-03 10:45;12,35
2019-08-03 11:00;12,8
2019-08-03 11:15;11,8
2019-08-03 11:30;8,7
2019-08-03 11:45;12,85
2019-08-03 12:00;13,3
2019-08-03 12:15;12,3
2019-08-03 12:30;12,55
2019-08-03 12:45;9,35
2019-08-03 13:00;8,95
2019-08-03 13:15;8,65
2019-08-03 13:30;8,2
2019-08-03 13:45;8,9
2019-08-03 14:00;7,4
2019-08-03 14:15;8,6
2019-08-03 14:30;8
2019-08-03 14:45;8,3
2019-08-03 15:00;9,55
2019-08-03 15:15;8,9
2019-08-03 15:30;9,9
2019-08-03 15:45;9,55
2019-08-03 16:00;11,15
2019-08-03 16:15;10,55
2019-08-03 16:30;10,4
2019-08-03 16:45;10
2019-08-03 17:00;8,5
2019-08-03 17:15;10,2
2019-08-03 17:30;8,7
2019-08-03 17:45;10,1
2019-08-03 18:00;9,75
2019-08-03 18:15;9,25
2019-08-03 18:30;10,65
2019-08-03 18:45;10,2
2019-08-03 19:00;11,05
2019-08-03 19:15;12,6
2019-08-03 19:30;12,35
2019-08-03 19:45;13,25
2019-08-03 20:00;13,75
2019-08-03 20:15;13,75
2019-08-03 20:30;14,4
2019-08-03 20:45;12,5
2019-08-03 21:00;13,8
2019-08-03 21:15;14,05
2019-08-03 21:30;13,45
2019-08-03 21:45;13,4
2019-08-03 22:00;13,75
2019-08-03 22:15;13,1
2019-08-03 22:30;14,4
2019-08-03 22:45;15,25
2019-08-03 23:00;15,8
2019-08-03 23:15;15,8
2019-08-03 23:30;17,3
2019-08-03 23:45;20,6
2019-08-04 00:00;16,45
2019-08-04 00:15;6,15
2019-08-04 00:30;7,25
2019-08-04 00:45;8,25
2019-08-04 01:00;8
2019-08-04 01:15;8,35
2019-08-04 01:30;9,05
2019-08-04 01:45;9,15
2019-08-04 02:00;10,55
2019-08-04 02:15;8,2
2019-08-04 02:30;9,45
2019-08-04 02:45;6,9
2019-08-04 03:00;6,25
2019-08-04 03:15;6,55
2019-08-04 03:30;7,25
2019-08-04 03:45;6,8
2019-08-04 04:00;7,3
2019-08-04 04:15;7,95
2019-08-04 04:30;7,45
2019-08-04 04:45;8
2019-08-04 05:00;7
2019-08-04 05:15;8,95
2019-08-04 05:30;8,75
2019-08-04 05:45;7,9
2019-08-04 06:00;6,95
2019-08-04 06:15;7,4
2019-08-04 06:30;6,8
2019-08-04 06:45;7,65
2019-08-04 07:00;7,1
2019-08-04 07:15;4,85
2019-08-04 07:30;8,1
2019-08-04 07:45;9,4
2019-08-04 08:00;7,95
2019-08-04 08:15;8,25
2019-08-04 08:30;8,6
2019-08-04 08:45;8,8
2019-08-04 09:00;8,45
2019-08-04 09:15;7,25
2019-08-04 09:30;6,8
2019-08-04 09:45;6,95
2019-08-04 10:00;5,2
2019-08-04 10:15;4,95
2019-08-04 10:30;4,85
2019-08-04 10:45;7,7
2019-08-04 11:00;11,55
2019-08-04 11:15;9,4
2019-08-04 11:30;9,3
2019-08-04 11:45;9,25
2019-08-04 12:00;9,35
2019-08-04 12:15;12,45
2019-08-04 12:30;13,45
2019-08-04 12:45;12,9
2019-08-04 13:00;12,2
2019-08-04 13:15;13,05
2019-08-04 13:30;12,7
2019-08-04 13:45;13,25
2019-08-04 14:00;13,65
2019-08-04 14:15;13,1
2019-08-04 14:30;13,75
2019-08-04 14:45;14,05
2019-08-04 15:00;13,45
2019-08-04 15:15;13,65
2019-08-04 15:30;14
2019-08-04 15:45;14,6
2019-08-04 16:00;15,3
2019-08-04 16:15;15,05
2019-08-04 16:30;13,65
2019-08-04 16:45;12,65
2019-08-04 17:00;13,05
2019-08-04 17:15;13,5
2019-08-04 17:30;14
2019-08-04 17:45;14,5
2019-08-04 18:00;13,4
2019-08-04 18:15;13
2019-08-04 18:30;14,25
2019-08-04 18:45;13,5
2019-08-04 19:00;13,9
2019-08-04 19:15;15,15
2019-08-04 19:30;14,7
2019-08-04 19:45;15,4
2019-08-04 20:00;16,7
2019-08-04 20:15;14,8
2019-08-04 20:30;15,6
2019-08-04 20:45;15,7
2019-08-04 21:00;14,15
2019-08-04 21:15;14,4
2019-08-04 21:30;13,9
2019-08-04 21:45;14,7
2019-08-04 22:00;14,05
2019-08-04 22:15;13
2019-08-04 22:30;13,4
2019-08-04 22:45;14,45
2019-08-04 23:00;16,45
2019-08-04 23:15;16,05
2019-08-04 23:30;17,9
2019-08-04 23:45;19,95

